Other Public Products
Issued by NWS Charleston, SC

Current Version | Previous Version | Text Only | Print | Product List | Glossary Off
Versions: 1 2 3 4 5 6 7 8 9 10 11 12 13 14 15 16 17 18 19 20 21 22 23 24 25 26 27 28 29 30 31 32 33 34 35 36 37 38 39 40 41 42 43 44 45 46 47 48 49 50
000 FPUS82 KCHS 221712 OPUCHS TEST...KCHS/KSAV Gateway Observations...TEST National Weather Service Charleston SC 100 PM EDT SUN OCT 22 2017 NOTE: "fair" indicates few or no clouds below 12,000 feet with no significant weather and/or obstructions to visibility. SCZ050-WAZ558-NCZ071-TXZ119-213-PAZ071-DCZ001-FLZ074-172-MI076- NYZ176-178-MAZ016-IL014-TNZ027-NJZ106-GAZ044-MD014-221800- ...Gateway Observations for Charleston International... CITY SKY/WX TMP DP RH WIND PRES REMARKS Chas Airport PTSUNNY 79 67 66 E13G21 30.25F Seattle PTSUNNY 54 46 74 SW15 30.11R Charlotte PTSUNNY 76 59 55 SE8 30.33F Dallas DFW PTSUNNY 67 57 70 NW18G26 30.16R Dallas Love PTSUNNY 67 56 67 N15G24 30.17R Philladelphia PTSUNNY 73 49 42 CALM 30.39F Wash National PTSUNNY 75 55 49 S7 30.37F Baltimore MOSUNNY 72 53 51 E7 30.36F Miami CLOUDY 86 75 69 SE21G28 30.10F HX 95 Detroit MOSUNNY 73 56 54 S13 30.14F Newark PTSUNNY 75 44 33 S7 30.39F Laguardia PTSUNNY 75 40 28 S10 30.39S J F K PTSUNNY 71 53 52 S8 30.42S Boston Logan MOSUNNY 64 55 72 E9 30.40F Ft. Lauderdale CLOUDY 87 74 64 SE21 30.09F HX 95 Chicago O`Hare CLOUDY 68 61 78 S16 29.93F Chicago Midway CLOUDY 71 61 70 S21G26 29.94F Houston Bush LGT RAIN 63 61 93 E14 30.05F Houston Hobby LGT RAIN 66 61 84 E12 30.08F Nashville PTSUNNY 79 59 50 S25G35 30.13S Atlanta PTSUNNY 75 65 70 SE14G21 30.23F $$ GAZ044-118-TXZ119-213-NCZ071-DCZ001-MDZ014-506-PAZ021-071-NJZ106- NYZ176-178-MAZ106-OHZ011-021-055-MIZ076-KYZ091-ILZ014-INZ047- MNZ060-ONZ431-221800- ...Gateway Observations for Savannah International... CITY SKY/WX TMP DP RH WIND PRES REMARKS Savannah Arpt PTSUNNY 77 71 82 NE12 30.23F Atlanta PTSUNNY 75 65 70 SE14G21 30.23F Charlotte PTSUNNY 76 59 55 SE8 30.33F Dallas DFW PTSUNNY 67 57 70 NW18G26 30.16R Houston Bush LGT RAIN 63 61 93 E14 30.05F Wash National PTSUNNY 75 55 49 S7 30.37F Wash Dulles MOSUNNY 74 58 57 SE8 30.36F Baltimore MOSUNNY 72 53 51 E7 30.36F Philadelphia PTSUNNY 73 49 42 CALM 30.39F Newark PTSUNNY 75 44 33 S7 30.39F Laguardia PTSUNNY 75 40 28 S10 30.39S J F K PTSUNNY 71 53 52 S8 30.42S Boston MOSUNNY 64 55 72 E9 30.40F Pittsburg PTSUNNY 72 52 49 VRB6 30.27F Akron PTSUNNY 72 51 47 S8 30.25F Cleveland MOSUNNY 75 51 43 SW15 30.22F Cincinnati CLOUDY 74 56 53 S17 30.17F Columbus SUNNY 74 52 45 S10 30.21F Detroit MOSUNNY 73 56 54 S13 30.14F Chicago O`Hare CLOUDY 68 61 78 S16 29.93F Minneapolis MOSUNNY 55 42 61 SW10 30.00F Indianapolis PTSUNNY 75 58 55 S17G24 30.07F Toronto Canada MOSUNNY 70 55 60 SE10 30.21F $$

USA.gov is the U.S. government's official web portal to all federal, state and local government web resources and services.